This is the latest recevied weather packets stored in our database for station/object KD0RII. If no packets are shown the sender has not sent any weather packets the latest 10 day(s).
| Time | Temp. | Humidity | Pressure | Rain* | Wind** | Luminosity | Snow |
|---|---|---|---|---|---|---|---|
| 1777560560 | 15.56° C | 70% | 1021.5 hPa | 0 mm | - | 419 W/m² | - |
| 1777560258 | 15° C | 77% | 1021.4 hPa | 0 mm | - | 268 W/m² | - |
| 1777559955 | 13.33° C | 79% | 1021.2 hPa | 0 mm | - | 399 W/m² | - |
| 1777559655 | 12.78° C | 87% | 1021.4 hPa | 0 mm | - | 206 W/m² | - |
| 1777559354 | 12.78° C | 91% | 1021.5 hPa | 0 mm | - | 211 W/m² | - |
| 1777559049 | 12.78° C | 94% | 1021.6 hPa | 0 mm | - | 229 W/m² | - |
| 1777558744 | 12.22° C | 94% | 1021.5 hPa | 0 mm | - | 283 W/m² | - |
| 1777558440 | 12.78° C | 94% | 1021.4 hPa | 0 mm | - | 203 W/m² | - |
| 1777558136 | 12.22° C | 95% | 1021.5 hPa | 0 mm | - | 192 W/m² | - |
| 1777557833 | 11.67° C | 95% | 1021.3 hPa | 0 mm | - | 369 W/m² | - |
| 1777557530 | 11.11° C | 95% | 1021.4 hPa | 0 mm | - | 150 W/m² | - |
| 1777557227 | 10.56° C | 95% | 1021.3 hPa | 0 mm | - | 264 W/m² | - |
| 1777556922 | 10° C | 95% | 1021.1 hPa | 0 mm | - | 177 W/m² | - |
| 1777556618 | 10° C | 95% | 1021.1 hPa | 0 mm | - | 124 W/m² | - |
| 1777556312 | 10° C | 95% | 1021.2 hPa | 0 mm | - | 66 W/m² | - |
| 1777556010 | 10° C | 95% | 1021.1 hPa | 0 mm | - | 109 W/m² | - |
| 1777555710 | 9.44° C | 95% | 1021.2 hPa | 0 mm | - | 82 W/m² | - |
| 1777555407 | 8.89° C | 95% | 1021.1 hPa | 0 mm | - | 87 W/m² | - |
| 1777555103 | 8.33° C | 95% | 1021.1 hPa | 0 mm | - | 64 W/m² | - |
| 1777554801 | 7.78° C | 95% | 1021.1 hPa | 0 mm | - | 63 W/m² | - |
| 1777554497 | 7.22° C | 95% | 1021.1 hPa | 0 mm | - | 65 W/m² | - |
| 1777554194 | 6.67° C | 95% | 1020.8 hPa | 0 mm | - | 52 W/m² | - |
| 1777553891 | 6.67° C | 95% | 1020.8 hPa | 0 mm | - | 55 W/m² | - |
| 1777553587 | 6.11° C | 95% | 1020.7 hPa | 0 mm | - | 46 W/m² | - |
| 1777553283 | 5.56° C | 95% | 1020.6 hPa | 0 mm | - | 46 W/m² | - |
* Rain latest hour (hover to see other rain measurements)
** Current wind speed in m/s (hover to see current wind gust speed)